Location: Unspecified
(50.7693°N, 0.0000°E)
Time: 03:33:45
(UTC+00:00)

Vanguard 2 - Pass Details

Date: 21 June 2019
Orbit: 553 x 2938 km, 32.9° (Epoch: 22 July)

Event Time Altitude Azimuth Distance (km) Brightness Sun altitude
Rises 13:55:59 0° 257° (WSW) 4,760 12.0 54.9°
Reaches altitude 10° 14:00:22 10° 239° (WSW) 4,203 12.1 54.3°
Maximum altitude 14:07:04 17° 204° (SSW) 4,201 12.1 53.5°
Drops below altitude 10° 14:15:18 10° 171° (S) 5,315 12.1 52.4°
Sets 14:22:11 0° 155° (SSE) 6,626 12.4 51.5°
